BAW282 KLAX-EGLL

Flight info

Callsign BAW282
Flight time N/A
Altitude 33000
Route ORCKA5 LAS DCT BAWER DCT LARVE DCT EKR DCT BFF DCT DLH Q924 AGLIN DCT 50N080W 51N070W 52N060W DCT YAY DCT TUDEP/M083F330 DCT 52N050W 52N040W 5230N03000W 52N020W DCT DINIM DCT ELSOX DCT LESLU/N0477F330 DCT FONZU DCT ELRIP DCT OTMET
Aircraft B77W/H-SDE1E2E3FGHIJ2J3J4J5M1RWXY/LB1D1

Departure

Time 2026-05-06 00:32
Airport Los Angeles International Airport (KLAX)

Arrival

Time N/A
Airport London Heathrow Airport (EGLL)
Time Latitude Longitude Altitude Speed Heading
2026-05-06 00:03 33.94154 -118.40948 97 ft 0 kts 263°
2026-05-06 00:16 33.94154 -118.40939 96 ft 4 kts 263°
2026-05-06 00:16 33.94158 -118.40907 98 ft 4 kts 263°
2026-05-06 00:16 33.94161 -118.40880 97 ft 4 kts 251°
2026-05-06 00:16 33.94175 -118.40858 96 ft 4 kts 194°
2026-05-06 00:17 33.94199 -118.40858 98 ft 4 kts 163°
2026-05-06 00:17 33.94211 -118.40862 96 ft 0 kts 154°
2026-05-06 00:21 33.94207 -118.40860 96 ft 5 kts 156°
2026-05-06 00:21 33.94151 -118.40844 99 ft 9 kts 171°
2026-05-06 00:22 33.94115 -118.40837 98 ft 0 kts 171°
2026-05-06 00:22 33.94086 -118.40833 98 ft 13 kts 173°
2026-05-06 00:22 33.93993 -118.40822 98 ft 13 kts 172°
2026-05-06 00:23 33.93922 -118.40806 98 ft 8 kts 158°
2026-05-06 00:23 33.93876 -118.40763 99 ft 8 kts 142°
2026-05-06 00:23 33.93829 -118.40724 101 ft 8 kts 134°
2026-05-06 00:23 33.93814 -118.40669 103 ft 8 kts 92°
2026-05-06 00:24 33.93818 -118.40607 99 ft 8 kts 84°
2026-05-06 00:24 33.93824 -118.40540 102 ft 9 kts 84°
2026-05-06 00:24 33.93833 -118.40440 100 ft 18 kts 83°
2026-05-06 00:24 33.93848 -118.40292 100 ft 19 kts 83°
2026-05-06 00:25 33.93864 -118.40139 103 ft 16 kts 83°
2026-05-06 00:25 33.93878 -118.40004 101 ft 16 kts 83°
2026-05-06 00:25 33.93892 -118.39871 101 ft 16 kts 83°
2026-05-06 00:25 33.93904 -118.39751 100 ft 16 kts 83°
2026-05-06 00:26 33.93915 -118.39633 101 ft 16 kts 83°
2026-05-06 00:26 33.93928 -118.39512 100 ft 16 kts 83°
2026-05-06 00:26 33.93941 -118.39383 101 ft 16 kts 83°
2026-05-06 00:26 33.93951 -118.39286 99 ft 16 kts 83°
2026-05-06 00:27 33.93963 -118.39170 100 ft 16 kts 83°
2026-05-06 00:27 33.93976 -118.39041 99 ft 16 kts 83°
2026-05-06 00:27 33.93989 -118.38916 99 ft 16 kts 83°
2026-05-06 00:27 33.94002 -118.38781 100 ft 16 kts 83°
2026-05-06 00:28 33.94016 -118.38646 102 ft 16 kts 83°
2026-05-06 00:28 33.94030 -118.38511 100 ft 16 kts 82°
2026-05-06 00:28 33.94045 -118.38376 100 ft 16 kts 83°
2026-05-06 00:28 33.94057 -118.38254 101 ft 16 kts 83°
2026-05-06 00:29 33.94071 -118.38118 99 ft 16 kts 83°
2026-05-06 00:29 33.94058 -118.38013 99 ft 13 kts 136°
2026-05-06 00:29 33.93989 -118.38045 101 ft 13 kts 244°
2026-05-06 00:29 33.93980 -118.38086 99 ft 0 kts 263°
2026-05-06 00:31 33.93979 -118.38090 98 ft 5 kts 261°
2026-05-06 00:31 33.93963 -118.38222 103 ft 48 kts 262°
2026-05-06 00:32 33.93900 -118.38831 102 ft 120 kts 263°
2026-05-06 00:32 33.93795 -118.39824 105 ft 181 kts 263°
2026-05-06 00:32 33.93698 -118.40917 174 ft 217 kts 262°
2026-05-06 00:32 33.93526 -118.42813 770 ft 249 kts 263°
2026-05-06 00:33 33.93330 -118.44858 2291 ft 242 kts 263°
2026-05-06 00:33 33.93125 -118.46854 3896 ft 240 kts 263°
2026-05-06 00:33 33.92926 -118.48890 5066 ft 250 kts 264°
2026-05-06 00:33 33.92728 -118.51121 4994 ft 274 kts 264°
2026-05-06 00:34 33.92533 -118.53350 5178 ft 263 kts 265°
2026-05-06 00:34 33.92285 -118.55510 5453 ft 262 kts 256°
2026-05-06 00:34 33.91607 -118.57555 5797 ft 265 kts 240°
2026-05-06 00:34 33.90456 -118.59323 6126 ft 273 kts 224°
2026-05-06 00:35 33.88917 -118.60687 6436 ft 278 kts 210°
2026-05-06 00:35 33.87183 -118.61729 6736 ft 280 kts 205°
2026-05-06 00:35 33.85302 -118.62405 7025 ft 284 kts 188°
2026-05-06 00:35 33.83326 -118.62470 7314 ft 287 kts 173°
2026-05-06 00:36 33.81376 -118.61911 7612 ft 290 kts 158°
2026-05-06 00:36 33.79620 -118.60786 7913 ft 291 kts 142°
2026-05-06 00:36 33.78130 -118.59133 8233 ft 291 kts 127°
2026-05-06 00:36 33.77046 -118.57092 8548 ft 290 kts 112°
2026-05-06 00:37 33.76427 -118.54794 8850 ft 289 kts 97°
2026-05-06 00:37 33.76322 -118.52406 9189 ft 286 kts 82°
2026-05-06 00:37 33.76727 -118.50089 9488 ft 283 kts 66°
2026-05-06 00:37 33.77731 -118.48103 9780 ft 277 kts 37°
2026-05-06 00:38 33.79421 -118.47137 10260 ft 272 kts
2026-05-06 00:38 33.81327 -118.47157 10492 ft 280 kts 358°
2026-05-06 00:38 33.83326 -118.47090 10635 ft 296 kts
2026-05-06 00:38 33.85411 -118.46639 10799 ft 313 kts 13°
2026-05-06 00:39 33.87575 -118.45928 10931 ft 332 kts 16°
2026-05-06 00:39 33.89841 -118.45085 11135 ft 347 kts 18°
2026-05-06 00:39 33.92069 -118.43882 11441 ft 358 kts 32°
2026-05-06 00:39 33.94008 -118.41948 11902 ft 369 kts 46°
2026-05-06 00:40 33.95571 -118.39453 12462 ft 376 kts 56°
2026-05-06 00:40 33.97011 -118.36787 13099 ft 381 kts 55°
2026-05-06 00:40 33.98541 -118.34039 13812 ft 385 kts 54°
2026-05-06 00:40 34.00008 -118.31439 14345 ft 390 kts 54°
2026-05-06 00:41 34.01535 -118.28742 15060 ft 391 kts 54°
2026-05-06 00:41 34.03075 -118.26025 15654 ft 394 kts 54°
2026-05-06 00:41 34.04633 -118.23279 16312 ft 394 kts 54°
2026-05-06 00:41 34.06175 -118.20559 16975 ft 396 kts 54°
2026-05-06 00:42 34.07732 -118.17811 17591 ft 399 kts 55°
2026-05-06 00:42 34.09305 -118.15029 18141 ft 402 kts 55°
2026-05-06 00:42 34.10890 -118.12224 18672 ft 408 kts 55°
2026-05-06 00:42 34.12490 -118.09387 19181 ft 410 kts 55°
2026-05-06 00:43 34.14096 -118.06541 19707 ft 412 kts 55°
2026-05-06 00:43 34.15712 -118.03677 20223 ft 414 kts 55°
2026-05-06 00:43 34.17336 -118.00796 20757 ft 416 kts 55°
2026-05-06 00:43 34.18968 -117.97893 21272 ft 417 kts 55°
2026-05-06 00:44 34.20602 -117.94986 21793 ft 419 kts 55°
2026-05-06 00:44 34.22241 -117.92067 22336 ft 420 kts 56°
2026-05-06 00:44 34.23880 -117.89146 22891 ft 421 kts 56°
2026-05-06 00:44 34.25527 -117.86209 23324 ft 424 kts 56°
2026-05-06 00:45 34.27188 -117.83245 23718 ft 427 kts 56°
2026-05-06 00:45 34.28860 -117.80259 24086 ft 430 kts 56°
2026-05-06 00:45 34.30544 -117.77246 24384 ft 434 kts 56°
2026-05-06 00:45 34.32246 -117.74203 24652 ft 440 kts 56°
2026-05-06 00:46 34.33963 -117.71129 25028 ft 441 kts 56°
2026-05-06 00:46 34.35684 -117.68058 25449 ft 442 kts 55°
2026-05-06 00:46 34.37468 -117.65012 25787 ft 444 kts 54°
2026-05-06 00:46 34.39293 -117.61974 26106 ft 447 kts 53°
2026-05-06 00:47 34.41139 -117.58923 26430 ft 450 kts 53°
2026-05-06 00:47 34.42968 -117.55895 26783 ft 452 kts 53°
2026-05-06 00:47 34.44815 -117.52823 27240 ft 449 kts 54°
2026-05-06 00:47 34.46638 -117.49777 27938 ft 444 kts 54°
2026-05-06 00:48 34.48450 -117.46738 28322 ft 445 kts 54°
2026-05-06 00:48 34.50269 -117.43679 28596 ft 448 kts 54°
2026-05-06 00:48 34.52101 -117.40593 28823 ft 451 kts 54°
2026-05-06 00:48 34.53932 -117.37508 29134 ft 451 kts 54°
2026-05-06 00:49 34.55735 -117.34465 29574 ft 449 kts 54°
2026-05-06 00:49 34.57543 -117.31412 30048 ft 446 kts 54°
2026-05-06 00:49 34.59352 -117.28357 30333 ft 446 kts 54°
2026-05-06 00:49 34.61166 -117.25290 30485 ft 449 kts 54°
2026-05-06 00:50 34.62992 -117.22199 30623 ft 451 kts 54°
2026-05-06 00:50 34.64821 -117.19101 30825 ft 452 kts 54°
2026-05-06 00:50 34.66653 -117.15996 30956 ft 453 kts 54°
2026-05-06 00:50 34.68486 -117.12885 31186 ft 453 kts 54°
2026-05-06 00:51 34.70326 -117.09761 31344 ft 455 kts 54°
2026-05-06 00:51 34.72172 -117.06622 31525 ft 456 kts 54°
2026-05-06 00:51 34.74020 -117.03480 31707 ft 458 kts 54°
2026-05-06 00:51 34.75878 -117.00316 31811 ft 461 kts 54°
2026-05-06 00:52 34.77456 -116.97626 31842 ft 462 kts 54°
2026-05-06 00:52 34.79875 -116.93500 31883 ft 461 kts 54°
2026-05-06 00:53 34.83575 -116.87176 31913 ft 454 kts 54°
2026-05-06 00:53 34.87170 -116.81026 31904 ft 445 kts 54°
2026-05-06 00:54 34.90761 -116.74871 31907 ft 446 kts 54°
2026-05-06 00:54 34.94739 -116.69046 31918 ft 447 kts 47°
2026-05-06 00:55 34.99005 -116.63502 31901 ft 449 kts 47°
2026-05-06 00:55 35.03274 -116.57918 31873 ft 450 kts 47°
2026-05-06 00:56 35.07536 -116.52302 31852 ft 450 kts 47°
2026-05-06 00:56 35.11779 -116.46691 31834 ft 449 kts 47°
2026-05-06 00:57 35.16011 -116.41085 31863 ft 448 kts 47°
2026-05-06 00:57 35.20194 -116.35535 31854 ft 444 kts 48°
2026-05-06 00:58 35.24348 -116.30018 31844 ft 438 kts 48°
2026-05-06 00:58 35.28458 -116.24547 31850 ft 435 kts 48°
2026-05-06 00:59 35.32542 -116.19100 31855 ft 434 kts 48°
2026-05-06 00:59 35.36627 -116.13648 31860 ft 435 kts 48°
2026-05-06 01:00 35.40725 -116.08168 31869 ft 436 kts 48°
2026-05-06 01:00 35.44831 -116.02667 31876 ft 438 kts 48°
2026-05-06 01:01 35.48952 -115.97137 31884 ft 440 kts 48°
2026-05-06 01:01 35.53085 -115.91583 31882 ft 441 kts 48°
2026-05-06 01:02 35.57217 -115.86019 31894 ft 441 kts 48°
2026-05-06 01:02 35.61326 -115.80480 31895 ft 441 kts 48°
2026-05-06 01:03 35.65444 -115.74898 31889 ft 440 kts 49°
2026-05-06 01:03 35.69523 -115.69295 31903 ft 439 kts 49°
2026-05-06 01:04 35.73597 -115.63683 31895 ft 439 kts 49°
2026-05-06 01:04 35.77662 -115.58081 31912 ft 439 kts 49°
2026-05-06 01:05 35.81737 -115.52459 31910 ft 440 kts 49°
2026-05-06 01:05 35.85802 -115.46844 31908 ft 438 kts 49°
2026-05-06 01:06 35.89854 -115.41235 31892 ft 436 kts 49°
2026-05-06 01:06 35.93880 -115.35653 31897 ft 434 kts 49°
2026-05-06 01:07 35.97861 -115.30125 31893 ft 433 kts 49°
2026-05-06 01:07 36.01860 -115.24561 31896 ft 433 kts 49°
2026-05-06 01:08 36.05859 -115.18991 31870 ft 433 kts 49°
2026-05-06 01:08 36.09647 -115.13188 31873 ft 434 kts 56°
2026-05-06 01:09 36.13072 -115.07030 31880 ft 435 kts 55°
2026-05-06 01:09 36.16513 -115.00862 31820 ft 436 kts 55°
2026-05-06 01:10 36.19972 -114.94677 31814 ft 435 kts 55°
2026-05-06 01:10 36.23413 -114.88519 31807 ft 434 kts 55°
2026-05-06 01:11 36.26817 -114.82418 31800 ft 432 kts 55°
2026-05-06 01:11 36.30227 -114.76296 31788 ft 431 kts 55°
2026-05-06 01:12 36.33594 -114.70242 31783 ft 430 kts 55°
2026-05-06 01:12 36.36984 -114.64133 31768 ft 430 kts 55°
2026-05-06 01:13 36.40372 -114.58018 31760 ft 430 kts 55°
2026-05-06 01:13 36.43763 -114.51886 31755 ft 431 kts 55°
2026-05-06 01:14 36.48853 -114.42662 31766 ft 432 kts 55°
2026-05-06 01:14 36.52247 -114.36498 31768 ft 432 kts 55°
2026-05-06 01:15 36.55617 -114.30367 31756 ft 431 kts 55°
2026-05-06 01:15 36.58983 -114.24235 31775 ft 428 kts 55°
2026-05-06 01:16 36.62325 -114.18123 31773 ft 426 kts 55°
2026-05-06 01:16 36.65655 -114.12030 31785 ft 425 kts 55°
2026-05-06 01:17 36.68983 -114.05931 31795 ft 426 kts 56°
2026-05-06 01:17 36.72319 -113.99807 31800 ft 428 kts 56°
2026-05-06 01:18 36.75663 -113.93655 31795 ft 429 kts 56°
2026-05-06 01:18 36.78453 -113.88519 31809 ft 431 kts 56°
2026-05-06 01:19 36.82356 -113.81314 31812 ft 429 kts 56°
2026-05-06 01:19 36.85154 -113.76134 31804 ft 429 kts 56°
2026-05-06 01:20 36.88486 -113.69962 31823 ft 428 kts 56°
2026-05-06 01:20 36.91813 -113.63789 31816 ft 428 kts 56°
2026-05-06 01:21 36.95111 -113.57658 31840 ft 428 kts 56°
2026-05-06 01:21 36.98431 -113.51475 31842 ft 428 kts 56°
2026-05-06 01:22 37.01741 -113.45300 31835 ft 427 kts 56°
2026-05-06 01:22 37.05055 -113.39106 31802 ft 428 kts 55°
2026-05-06 01:23 37.08372 -113.32894 31838 ft 430 kts 56°
2026-05-06 01:23 37.11699 -113.26645 31856 ft 432 kts 56°
2026-05-06 01:24 37.15009 -113.20415 31869 ft 434 kts 56°
2026-05-06 01:24 37.18357 -113.14114 31865 ft 434 kts 56°
2026-05-06 01:25 37.21709 -113.07793 31866 ft 434 kts 56°
2026-05-06 01:25 37.25053 -113.01475 31837 ft 434 kts 56°
2026-05-06 01:26 37.28381 -112.95157 31828 ft 433 kts 55°
2026-05-06 01:26 37.31701 -112.88850 31811 ft 432 kts 55°
2026-05-06 01:27 37.35009 -112.82578 31809 ft 429 kts 56°
2026-05-06 01:27 37.38272 -112.76366 31809 ft 428 kts 56°
2026-05-06 01:28 37.41550 -112.70108 31812 ft 429 kts 56°
2026-05-06 01:28 37.44835 -112.63824 31815 ft 431 kts 56°
2026-05-06 01:29 37.48133 -112.57505 31823 ft 433 kts 56°
2026-05-06 01:29 37.51444 -112.51149 31815 ft 434 kts 56°
2026-05-06 01:30 37.54755 -112.44782 31829 ft 435 kts 56°
2026-05-06 01:30 37.58071 -112.38390 31870 ft 436 kts 56°
2026-05-06 01:31 37.61388 -112.31989 31898 ft 437 kts 56°
2026-05-06 01:31 37.64811 -112.25716 31938 ft 436 kts 51°
2026-05-06 01:32 37.68581 -112.19740 31939 ft 434 kts 51°
2026-05-06 01:32 37.72329 -112.13777 31940 ft 432 kts 51°
2026-05-06 01:33 37.76059 -112.07810 31947 ft 432 kts 51°
2026-05-06 01:33 37.79777 -112.01837 31919 ft 432 kts 51°
2026-05-06 01:34 37.83492 -111.95857 31891 ft 433 kts 51°
2026-05-06 01:34 37.87189 -111.89894 31850 ft 434 kts 51°
2026-05-06 01:35 37.90912 -111.83882 31829 ft 435 kts 51°
2026-05-06 01:35 37.94623 -111.77873 31775 ft 436 kts 51°
2026-05-06 01:36 37.98390 -111.71763 31902 ft 439 kts 51°
2026-05-06 01:36 38.00271 -111.68711 32155 ft 438 kts 51°
2026-05-06 01:36 38.02145 -111.65663 32436 ft 437 kts 51°
2026-05-06 01:37 38.04009 -111.62630 32692 ft 436 kts 51°
2026-05-06 01:37 38.05885 -111.59577 32739 ft 440 kts 51°
2026-05-06 01:37 38.09650 -111.53441 32809 ft 440 kts 51°
2026-05-06 01:38 38.13397 -111.47319 32804 ft 438 kts 51°
2026-05-06 01:38 38.17125 -111.41215 32811 ft 437 kts 51°
2026-05-06 01:39 38.20820 -111.35156 32787 ft 437 kts 51°
2026-05-06 01:39 38.24540 -111.29046 32791 ft 437 kts 51°
2026-05-06 01:40 38.28259 -111.22923 32764 ft 437 kts 50°
2026-05-06 01:40 38.31977 -111.16794 32764 ft 438 kts 50°
2026-05-06 01:41 38.35702 -111.10640 32760 ft 438 kts 51°
2026-05-06 01:41 38.39427 -111.04474 32772 ft 439 kts 51°
2026-05-06 01:42 38.43150 -110.98300 32777 ft 440 kts 51°
2026-05-06 01:42 38.46851 -110.92150 32791 ft 440 kts 51°
2026-05-06 01:43 38.50576 -110.85949 32807 ft 440 kts 51°
2026-05-06 01:43 38.54300 -110.79737 32808 ft 441 kts 51°
2026-05-06 01:44 38.58033 -110.73500 32799 ft 442 kts 51°
2026-05-06 01:44 38.61766 -110.67249 32786 ft 443 kts 50°
2026-05-06 01:45 38.65504 -110.60979 32746 ft 444 kts 50°
2026-05-06 01:45 38.69251 -110.54680 32746 ft 445 kts 50°
2026-05-06 01:46 38.73002 -110.48364 32754 ft 446 kts 50°
2026-05-06 01:46 38.76754 -110.42031 32749 ft 447 kts 50°
2026-05-06 01:47 38.80491 -110.35713 32747 ft 447 kts 50°
2026-05-06 01:47 38.84254 -110.29337 32745 ft 448 kts 50°
2026-05-06 01:48 38.88014 -110.22954 32753 ft 448 kts 50°
2026-05-06 01:48 38.91747 -110.16605 32735 ft 448 kts 51°
2026-05-06 01:49 38.95497 -110.10213 32751 ft 449 kts 50°
2026-05-06 01:49 38.99260 -110.03788 32744 ft 450 kts 50°
2026-05-06 01:50 39.03025 -109.97347 32757 ft 451 kts 50°
2026-05-06 01:50 39.06689 -109.90787 32759 ft 452 kts 53°
2026-05-06 01:51 39.09957 -109.84489 32750 ft 453 kts 54°
2026-05-06 01:51 39.13441 -109.77712 32736 ft 454 kts 53°
2026-05-06 01:52 39.16939 -109.70930 32762 ft 454 kts 53°
2026-05-06 01:52 39.20451 -109.64132 32740 ft 455 kts 53°
2026-05-06 01:53 39.23942 -109.57363 32760 ft 456 kts 53°
2026-05-06 01:53 39.27451 -109.50544 32757 ft 456 kts 53°
2026-05-06 01:54 39.30979 -109.43674 32758 ft 457 kts 53°
2026-05-06 01:54 39.34476 -109.36852 32745 ft 458 kts 53°
2026-05-06 01:55 39.37993 -109.29975 32761 ft 459 kts 53°
2026-05-06 01:55 39.41514 -109.23072 32752 ft 460 kts 53°
2026-05-06 01:56 39.45030 -109.16163 32754 ft 460 kts 53°
2026-05-06 01:56 39.48546 -109.09243 32748 ft 461 kts 53°
2026-05-06 01:57 39.52073 -109.02283 32754 ft 462 kts 53°
2026-05-06 01:57 39.55597 -108.95316 32752 ft 462 kts 53°
2026-05-06 01:58 39.59119 -108.88337 32758 ft 463 kts 53°
2026-05-06 01:58 39.62645 -108.81335 32777 ft 464 kts 53°
2026-05-06 01:59 39.66167 -108.74325 32783 ft 465 kts 52°
2026-05-06 01:59 39.69698 -108.67283 32794 ft 465 kts 52°
2026-05-06 02:00 39.73225 -108.60230 32782 ft 466 kts 52°
2026-05-06 02:00 39.76754 -108.53159 32807 ft 466 kts 52°
2026-05-06 02:01 39.80254 -108.46129 32811 ft 466 kts 53°
2026-05-06 02:01 39.83784 -108.39025 32822 ft 467 kts 53°
2026-05-06 02:02 39.87314 -108.31904 32820 ft 469 kts 53°
2026-05-06 02:02 39.90857 -108.24743 32861 ft 471 kts 52°
2026-05-06 02:03 39.94410 -108.17541 32886 ft 473 kts 52°
2026-05-06 02:03 39.97970 -108.10311 32915 ft 474 kts 52°
2026-05-06 02:04 40.01531 -108.03057 32949 ft 475 kts 53°
2026-05-06 02:04 40.05093 -107.95788 32949 ft 475 kts 53°
2026-05-06 02:05 40.08591 -107.88484 32844 ft 475 kts 54°
2026-05-06 02:05 40.11873 -107.81003 32869 ft 474 kts 56°
2026-05-06 02:06 40.15088 -107.73550 32865 ft 474 kts 56°
2026-05-06 02:06 40.18354 -107.66044 32874 ft 476 kts 56°
2026-05-06 02:07 40.21655 -107.58497 32894 ft 479 kts 55°
2026-05-06 02:07 40.24979 -107.50895 32909 ft 482 kts 55°
2026-05-06 02:08 40.28315 -107.43244 32913 ft 485 kts 55°
2026-05-06 02:08 40.31662 -107.35545 32917 ft 488 kts 56°
2026-05-06 02:09 40.35025 -107.27788 32956 ft 490 kts 56°
2026-05-06 02:09 40.38392 -107.20000 32962 ft 492 kts 56°
2026-05-06 02:10 40.41738 -107.12241 32957 ft 492 kts 56°
2026-05-06 02:10 40.45100 -107.04422 32957 ft 491 kts 56°
2026-05-06 02:11 40.48456 -106.96607 32933 ft 492 kts 56°
2026-05-06 02:11 40.51808 -106.88774 32910 ft 492 kts 56°
2026-05-06 02:12 40.55164 -106.80913 32944 ft 495 kts 56°
2026-05-06 02:12 40.58539 -106.72988 32948 ft 497 kts 56°
2026-05-06 02:13 40.61897 -106.65083 32933 ft 499 kts 57°
2026-05-06 02:13 40.65293 -106.57066 32931 ft 502 kts 57°
2026-05-06 02:14 40.68695 -106.49015 32931 ft 504 kts 57°
2026-05-06 02:14 40.72103 -106.40926 32941 ft 505 kts 57°
2026-05-06 02:15 40.75508 -106.32820 32977 ft 506 kts 57°
2026-05-06 02:15 40.78928 -106.24662 32981 ft 508 kts 57°
2026-05-06 02:16 40.82352 -106.16471 32980 ft 510 kts 57°
2026-05-06 02:16 40.85780 -106.08244 33002 ft 512 kts 57°
2026-05-06 02:17 40.89214 -105.99983 32999 ft 513 kts 57°
2026-05-06 02:17 40.92633 -105.91738 33039 ft 516 kts 58°
2026-05-06 02:18 40.96089 -105.83378 33034 ft 520 kts 58°
2026-05-06 02:18 40.99558 -105.74961 33034 ft 522 kts 58°
2026-05-06 02:19 41.03034 -105.66502 33035 ft 523 kts 58°
2026-05-06 02:19 41.06513 -105.58015 33027 ft 525 kts 58°
2026-05-06 02:20 41.11734 -105.45230 33040 ft 526 kts 58°
2026-05-06 02:21 41.15209 -105.36692 33035 ft 526 kts 58°
2026-05-06 02:21 41.18678 -105.28142 33077 ft 527 kts 59°
2026-05-06 02:22 41.22153 -105.19554 33072 ft 528 kts 59°
2026-05-06 02:22 41.25629 -105.10942 33072 ft 530 kts 59°
2026-05-06 02:23 41.29109 -105.02292 33075 ft 531 kts 59°
2026-05-06 02:23 41.32591 -104.93608 33055 ft 532 kts 59°
2026-05-06 02:24 41.36078 -104.84887 33063 ft 534 kts 59°
2026-05-06 02:24 41.39506 -104.76291 33072 ft 536 kts 59°
2026-05-06 02:25 41.42999 -104.67504 33081 ft 537 kts 59°
2026-05-06 02:25 41.46494 -104.58688 33090 ft 538 kts 59°
2026-05-06 02:26 41.49395 -104.51349 33100 ft 538 kts 59°
2026-05-06 02:26 41.52880 -104.42506 33093 ft 538 kts 59°
2026-05-06 02:27 41.56359 -104.33653 33080 ft 538 kts 60°
2026-05-06 02:27 41.59823 -104.24813 33082 ft 537 kts 60°
2026-05-06 02:28 41.63281 -104.15959 33085 ft 538 kts 60°
2026-05-06 02:28 41.66746 -104.07064 33092 ft 540 kts 60°
2026-05-06 02:29 41.70212 -103.98138 33079 ft 542 kts 60°
2026-05-06 02:29 41.73683 -103.89168 33071 ft 543 kts 60°
2026-05-06 02:30 41.77153 -103.80173 33054 ft 545 kts 60°
2026-05-06 02:30 41.80612 -103.71181 33038 ft 547 kts 60°
2026-05-06 02:31 41.84095 -103.62095 33046 ft 548 kts 60°
2026-05-06 02:31 41.87577 -103.52986 33034 ft 549 kts 60°
2026-05-06 02:32 41.91378 -103.44137 33031 ft 545 kts 52°
2026-05-06 02:32 41.95768 -103.35837 33044 ft 545 kts 51°
2026-05-06 02:33 42.00184 -103.27540 33047 ft 545 kts 51°
2026-05-06 02:33 42.01638 -103.24783 33056 ft 545 kts 51°
2026-05-06 02:34 42.08908 -103.10822 33052 ft 546 kts 52°
2026-05-06 02:34 42.13254 -103.02413 33039 ft 547 kts 52°
2026-05-06 02:35 42.17602 -102.93982 33041 ft 549 kts 52°
2026-05-06 02:35 42.21930 -102.85573 33054 ft 549 kts 52°
2026-05-06 02:36 42.26283 -102.77095 33057 ft 550 kts 52°
2026-05-06 02:36 42.30641 -102.68581 33050 ft 551 kts 52°
2026-05-06 02:37 42.35001 -102.60038 33057 ft 553 kts 52°
2026-05-06 02:37 42.39367 -102.51460 33062 ft 553 kts 52°
2026-05-06 02:38 42.43725 -102.42872 33063 ft 553 kts 52°
2026-05-06 02:38 42.48075 -102.34276 33060 ft 553 kts 52°
2026-05-06 02:39 42.52416 -102.25672 33071 ft 553 kts 52°
2026-05-06 02:39 42.56753 -102.17052 33067 ft 553 kts 52°
2026-05-06 02:40 42.61054 -102.08479 33063 ft 553 kts 52°
2026-05-06 02:40 42.65376 -101.99839 33077 ft 553 kts 52°
2026-05-06 02:41 42.69695 -101.91182 33073 ft 553 kts 52°
2026-05-06 02:41 42.74007 -101.82513 33079 ft 553 kts 53°
2026-05-06 02:42 42.78308 -101.73840 33085 ft 553 kts 53°
2026-05-06 02:42 42.82604 -101.65151 33097 ft 553 kts 52°
2026-05-06 02:43 42.86901 -101.56438 33088 ft 554 kts 53°
2026-05-06 02:43 42.91194 -101.47704 33100 ft 554 kts 53°
2026-05-06 02:44 42.95486 -101.38947 33089 ft 555 kts 53°
2026-05-06 02:44 42.99747 -101.30227 33099 ft 555 kts 53°
2026-05-06 02:45 43.04052 -101.21393 33094 ft 555 kts 53°
2026-05-06 02:45 43.08328 -101.12590 33081 ft 555 kts 53°
2026-05-06 02:46 43.12564 -101.03845 33066 ft 555 kts 53°
2026-05-06 02:46 43.16812 -100.95045 33049 ft 553 kts 53°
2026-05-06 02:47 43.21050 -100.86247 33042 ft 552 kts 53°
2026-05-06 02:47 43.25269 -100.77460 33047 ft 551 kts 53°
2026-05-06 02:48 43.29480 -100.68658 33055 ft 550 kts 53°
2026-05-06 02:48 43.33667 -100.59887 33072 ft 551 kts 53°
2026-05-06 02:49 43.37855 -100.51084 33082 ft 551 kts 53°
2026-05-06 02:49 43.42018 -100.42309 33098 ft 550 kts 53°
2026-05-06 02:50 43.46192 -100.33484 33092 ft 550 kts 53°
2026-05-06 02:50 43.50363 -100.24638 33086 ft 550 kts 53°
2026-05-06 02:51 43.54527 -100.15781 33082 ft 550 kts 53°
2026-05-06 02:51 43.58683 -100.06913 33110 ft 550 kts 53°
2026-05-06 02:52 43.62832 -99.98033 33101 ft 550 kts 53°
2026-05-06 02:52 43.66938 -99.89218 33072 ft 549 kts 53°
2026-05-06 02:53 43.71052 -99.80360 33074 ft 548 kts 53°
2026-05-06 02:53 43.75159 -99.71492 33092 ft 547 kts 54°
2026-05-06 02:54 43.79263 -99.62603 33090 ft 548 kts 54°
2026-05-06 02:54 43.83363 -99.53694 33117 ft 548 kts 54°
2026-05-06 02:55 43.87452 -99.44780 33078 ft 548 kts 54°
2026-05-06 02:55 43.91527 -99.35872 33070 ft 547 kts 54°
2026-05-06 02:56 43.95591 -99.26960 33073 ft 546 kts 54°
2026-05-06 02:56 43.99619 -99.18098 33076 ft 545 kts 54°
2026-05-06 02:57 44.03663 -99.09177 33076 ft 546 kts 54°
2026-05-06 02:57 44.07707 -99.00227 33107 ft 547 kts 54°
2026-05-06 02:58 44.11744 -98.91264 33073 ft 546 kts 54°
2026-05-06 02:58 44.15774 -98.82290 33076 ft 545 kts 54°
2026-05-06 02:59 44.19781 -98.73338 33073 ft 544 kts 55°
2026-05-06 02:59 44.23778 -98.64379 33067 ft 544 kts 55°
2026-05-06 03:00 44.27739 -98.55477 33086 ft 544 kts 55°
2026-05-06 03:00 44.31727 -98.46485 33093 ft 544 kts 55°
2026-05-06 03:01 44.35707 -98.37481 33046 ft 543 kts 55°
2026-05-06 03:01 44.39669 -98.28492 33034 ft 542 kts 55°
2026-05-06 03:02 44.43590 -98.19568 33062 ft 541 kts 55°
2026-05-06 03:02 44.47522 -98.10589 33066 ft 540 kts 55°
2026-05-06 03:03 44.51440 -98.01616 33068 ft 540 kts 55°
2026-05-06 03:03 44.55356 -97.92620 33054 ft 541 kts 55°
2026-05-06 03:04 44.59283 -97.83570 33080 ft 544 kts 56°
2026-05-06 03:04 44.63215 -97.74479 33078 ft 546 kts 56°
2026-05-06 03:05 44.67162 -97.65324 33070 ft 549 kts 56°
2026-05-06 03:05 44.71088 -97.56187 33055 ft 550 kts 56°
2026-05-06 03:06 44.75043 -97.46954 33072 ft 551 kts 56°
2026-05-06 03:06 44.78966 -97.37759 33036 ft 543 kts 56°
2026-05-06 03:07 44.82676 -97.29038 33048 ft 541 kts 56°
2026-05-06 03:07 44.86543 -97.19928 33041 ft 542 kts 56°
2026-05-06 03:08 44.90390 -97.10837 33039 ft 543 kts 56°
2026-05-06 03:08 44.94256 -97.01665 33040 ft 544 kts 56°
2026-05-06 03:09 44.98117 -96.92477 33042 ft 544 kts 56°
2026-05-06 03:09 45.01748 -96.83803 33023 ft 539 kts 56°
2026-05-06 03:10 45.05552 -96.74689 33032 ft 537 kts 56°
2026-05-06 03:10 45.09334 -96.65603 33055 ft 537 kts 57°
2026-05-06 03:11 45.13122 -96.56475 33047 ft 537 kts 57°
2026-05-06 03:11 45.16903 -96.47332 33041 ft 539 kts 57°
2026-05-06 03:12 45.20665 -96.38204 33084 ft 540 kts 57°
2026-05-06 03:12 45.24448 -96.28994 33046 ft 540 kts 57°
2026-05-06 03:13 45.28155 -96.19939 33039 ft 538 kts 57°
2026-05-06 03:13 45.31270 -96.12308 33020 ft 536 kts 57°
2026-05-06 03:14 45.34976 -96.03203 33030 ft 535 kts 57°
2026-05-06 03:14 45.38673 -95.94091 33026 ft 534 kts 57°
2026-05-06 03:15 45.42381 -95.84921 33021 ft 534 kts 57°
2026-05-06 03:15 45.46085 -95.75732 33036 ft 535 kts 57°
2026-05-06 03:16 45.49780 -95.66534 33038 ft 535 kts 57°
2026-05-06 03:16 45.53466 -95.57326 33021 ft 535 kts 58°
2026-05-06 03:17 45.57148 -95.48098 33011 ft 535 kts 58°
2026-05-06 03:17 45.60820 -95.38866 33006 ft 535 kts 58°
2026-05-06 03:18 45.64493 -95.29603 33005 ft 536 kts 58°
2026-05-06 03:18 45.68138 -95.20376 33012 ft 536 kts 58°
2026-05-06 03:19 45.71788 -95.11103 33027 ft 534 kts 58°
2026-05-06 03:19 45.75420 -95.01848 33022 ft 532 kts 58°
2026-05-06 03:20 45.80844 -94.87969 33033 ft 532 kts 58°
2026-05-06 03:20 45.84459 -94.78680 33021 ft 533 kts 58°
2026-05-06 03:21 45.88068 -94.69374 33050 ft 534 kts 58°
2026-05-06 03:21 45.91671 -94.60053 33028 ft 534 kts 58°
2026-05-06 03:22 45.95269 -94.50713 33007 ft 534 kts 58°
2026-05-06 03:22 45.98827 -94.41442 33015 ft 532 kts 58°
2026-05-06 03:23 46.02417 -94.32058 32981 ft 532 kts 58°
2026-05-06 03:23 46.05953 -94.22784 32982 ft 532 kts 58°
2026-05-06 03:24 46.09508 -94.13428 33011 ft 532 kts 59°
2026-05-06 03:24 46.13050 -94.04074 32999 ft 532 kts 59°
2026-05-06 03:25 46.16589 -93.94697 33003 ft 531 kts 59°
2026-05-06 03:25 46.19827 -93.86086 33003 ft 531 kts 59°
2026-05-06 03:26 46.23343 -93.76709 33006 ft 530 kts 59°
2026-05-06 03:26 46.26802 -93.67450 33000 ft 530 kts 59°
2026-05-06 03:27 46.30299 -93.58056 33005 ft 530 kts 59°
2026-05-06 03:27 46.33676 -93.48955 33006 ft 530 kts 59°
2026-05-06 03:28 46.37033 -93.39875 32998 ft 530 kts 59°
2026-05-06 03:28 46.40500 -93.30466 32997 ft 529 kts 59°
2026-05-06 03:29 46.43957 -93.21054 32999 ft 528 kts 59°
2026-05-06 03:29 46.47406 -93.11628 32989 ft 528 kts 59°
2026-05-06 03:30 46.50845 -93.02198 32995 ft 529 kts 59°
2026-05-06 03:30 46.54279 -92.92748 33011 ft 529 kts 60°
2026-05-06 03:31 46.57705 -92.83284 32991 ft 529 kts 60°
2026-05-06 03:31 46.61123 -92.73810 32968 ft 529 kts 60°
2026-05-06 03:32 46.64509 -92.64391 32966 ft 528 kts 60°
2026-05-06 03:32 46.67907 -92.54906 32962 ft 528 kts 60°
2026-05-06 03:33 46.71295 -92.45416 32963 ft 528 kts 60°
2026-05-06 03:33 46.74676 -92.35908 32963 ft 528 kts 60°
2026-05-06 03:34 46.78051 -92.26390 32947 ft 528 kts 60°
2026-05-06 03:34 46.81792 -92.17198 32942 ft 525 kts 50°
2026-05-06 03:35 46.86384 -92.08961 32950 ft 522 kts 46°
2026-05-06 03:35 46.90992 -92.00720 32940 ft 524 kts 47°
2026-05-06 03:36 46.95542 -91.92386 32983 ft 524 kts 48°
2026-05-06 03:36 47.00066 -91.84086 32946 ft 524 kts 48°
2026-05-06 03:37 47.04607 -91.75736 32943 ft 523 kts 48°
2026-05-06 03:37 47.09138 -91.67380 32941 ft 522 kts 48°
2026-05-06 03:38 47.13633 -91.59063 32969 ft 521 kts 48°
2026-05-06 03:38 47.18141 -91.50700 33004 ft 521 kts 49°
2026-05-06 03:39 47.22624 -91.42323 32977 ft 521 kts 49°
2026-05-06 03:39 47.27087 -91.33945 32975 ft 520 kts 49°
2026-05-06 03:40 47.31559 -91.25568 32969 ft 519 kts 48°
2026-05-06 03:40 47.36157 -91.17381 32960 ft 518 kts 47°
2026-05-06 03:41 47.40558 -91.09137 32980 ft 519 kts 50°
2026-05-06 03:41 47.44897 -91.00705 32965 ft 518 kts 50°
2026-05-06 03:42 47.49290 -90.92259 32953 ft 517 kts 50°
2026-05-06 03:42 47.53680 -90.83844 32957 ft 516 kts 49°
2026-05-06 03:43 47.58087 -90.75440 32953 ft 516 kts 49°
2026-05-06 03:43 47.62489 -90.67037 32947 ft 516 kts 50°
2026-05-06 03:44 47.66883 -90.58614 32947 ft 516 kts 50°
2026-05-06 03:44 47.71265 -90.50180 32941 ft 515 kts 50°
2026-05-06 03:45 47.75608 -90.41795 32943 ft 515 kts 50°
2026-05-06 03:45 47.80001 -90.33291 32937 ft 515 kts 50°
2026-05-06 03:46 47.84355 -90.24830 32882 ft 515 kts 50°
2026-05-06 03:46 47.88673 -90.16407 32891 ft 515 kts 50°
2026-05-06 03:47 47.93013 -90.07913 32907 ft 514 kts 50°
2026-05-06 03:47 47.97341 -89.99423 32927 ft 514 kts 50°
2026-05-06 03:48 48.01657 -89.90921 32947 ft 513 kts 50°
2026-05-06 03:48 48.05968 -89.82407 32934 ft 513 kts 50°
2026-05-06 03:49 48.10270 -89.73887 32932 ft 513 kts 51°
2026-05-06 03:49 48.14536 -89.65412 32919 ft 513 kts 51°
2026-05-06 03:50 48.18819 -89.56874 32911 ft 513 kts 51°
2026-05-06 03:50 48.23073 -89.48295 32926 ft 513 kts 54°
2026-05-06 03:51 48.26530 -89.38920 32901 ft 514 kts 65°
2026-05-06 03:51 48.28943 -89.28895 32904 ft 513 kts 70°
2026-05-06 03:52 48.31157 -89.19034 32893 ft 512 kts 70°
2026-05-06 03:52 48.33369 -89.09267 32892 ft 512 kts 70°
2026-05-06 03:53 48.35554 -88.99703 32904 ft 512 kts 70°
2026-05-06 03:53 48.37830 -88.89743 32904 ft 513 kts 70°
2026-05-06 03:54 48.39838 -88.80917 32902 ft 514 kts 70°
2026-05-06 03:54 48.42146 -88.70721 32888 ft 515 kts 70°
2026-05-06 03:55 48.44448 -88.60495 32899 ft 515 kts 70°
2026-05-06 03:55 48.46738 -88.50275 32885 ft 515 kts 70°
2026-05-06 03:56 48.48972 -88.40255 32882 ft 513 kts 70°
2026-05-06 03:56 48.51217 -88.30135 32883 ft 512 kts 70°
2026-05-06 03:57 48.53448 -88.20032 32879 ft 511 kts 70°
2026-05-06 03:57 48.55690 -88.09828 32881 ft 511 kts 71°
2026-05-06 03:58 48.57923 -87.99620 32878 ft 512 kts 71°
2026-05-06 03:58 48.59771 -87.91131 32872 ft 512 kts 71°
2026-05-06 03:59 48.61990 -87.80887 32868 ft 513 kts 71°
2026-05-06 03:59 48.64199 -87.70641 32882 ft 514 kts 71°
2026-05-06 04:00 48.66403 -87.60372 32868 ft 513 kts 71°
2026-05-06 04:00 48.68592 -87.50115 32866 ft 511 kts 71°
2026-05-06 04:01 48.70765 -87.39883 32865 ft 510 kts 71°
2026-05-06 04:01 48.72928 -87.29651 32860 ft 510 kts 71°
2026-05-06 04:02 48.75067 -87.19475 32869 ft 510 kts 71°
2026-05-06 04:02 48.77213 -87.09217 32868 ft 511 kts 71°
2026-05-06 04:03 48.79355 -86.98926 32870 ft 512 kts 71°
2026-05-06 04:03 48.81492 -86.88609 32866 ft 513 kts 72°
2026-05-06 04:04 48.83625 -86.78253 32871 ft 514 kts 72°
2026-05-06 04:04 48.85752 -86.67874 32871 ft 515 kts 72°
2026-05-06 04:05 48.87873 -86.57472 32862 ft 516 kts 72°
2026-05-06 04:05 48.89974 -86.47109 32861 ft 516 kts 72°
2026-05-06 04:06 48.92078 -86.36679 32857 ft 516 kts 72°
2026-05-06 04:06 48.94173 -86.26237 32859 ft 516 kts 72°
2026-05-06 04:07 48.96261 -86.15773 32860 ft 516 kts 72°
2026-05-06 04:07 48.98337 -86.05313 32853 ft 516 kts 72°
2026-05-06 04:08 49.00407 -85.94831 32849 ft 517 kts 72°
2026-05-06 04:08 49.02471 -85.84321 32853 ft 518 kts 72°
2026-05-06 04:09 49.04525 -85.73802 32845 ft 517 kts 72°
2026-05-06 04:09 49.06554 -85.63356 32851 ft 517 kts 72°
2026-05-06 04:10 49.08584 -85.52847 32824 ft 516 kts 73°
2026-05-06 04:10 49.10603 -85.42338 32838 ft 516 kts 73°
2026-05-06 04:11 49.12610 -85.31831 32843 ft 515 kts 73°
2026-05-06 04:11 49.14607 -85.21318 32817 ft 516 kts 73°
2026-05-06 04:12 49.16595 -85.10794 32827 ft 516 kts 73°
2026-05-06 04:12 49.18577 -85.00243 32821 ft 516 kts 73°
2026-05-06 04:13 49.20548 -84.89691 32812 ft 516 kts 73°
2026-05-06 04:13 49.22510 -84.79130 32814 ft 515 kts 73°
2026-05-06 04:14 49.24456 -84.68592 32804 ft 514 kts 73°
2026-05-06 04:14 49.26389 -84.58066 32805 ft 514 kts 73°
2026-05-06 04:15 49.28298 -84.47605 32797 ft 513 kts 73°
2026-05-06 04:15 49.30214 -84.37053 32803 ft 514 kts 73°
2026-05-06 04:16 49.32121 -84.26487 32793 ft 514 kts 74°
2026-05-06 04:16 49.34020 -84.15903 32793 ft 515 kts 74°
2026-05-06 04:17 49.35915 -84.05276 32788 ft 516 kts 74°
2026-05-06 04:17 49.37803 -83.94629 32791 ft 517 kts 74°
2026-05-06 04:18 49.39683 -83.83966 32778 ft 517 kts 74°
2026-05-06 04:18 49.41540 -83.73366 32768 ft 517 kts 74°
2026-05-06 04:19 49.43400 -83.62687 32770 ft 517 kts 74°
2026-05-06 04:19 49.45248 -83.52011 32765 ft 517 kts 74°
2026-05-06 04:20 49.47088 -83.41314 32761 ft 517 kts 75°
2026-05-06 04:20 49.48917 -83.30618 32767 ft 518 kts 75°
2026-05-06 04:21 49.50742 -83.19884 32749 ft 518 kts 75°
2026-05-06 04:21 49.52546 -83.09200 32752 ft 519 kts 75°
2026-05-06 04:22 49.54353 -82.98437 32766 ft 520 kts 75°
2026-05-06 04:23 49.57052 -82.82228 32739 ft 521 kts 75°
2026-05-06 04:23 49.58839 -82.71416 32732 ft 521 kts 75°
2026-05-06 04:24 49.60616 -82.60593 32738 ft 521 kts 75°
2026-05-06 04:24 49.62386 -82.49741 32722 ft 522 kts 75°
2026-05-06 04:25 49.64146 -82.38880 32720 ft 522 kts 75°
2026-05-06 04:25 49.65884 -82.28087 32714 ft 523 kts 75°
2026-05-06 04:26 49.67631 -82.17165 32720 ft 524 kts 75°
2026-05-06 04:26 49.69370 -82.06220 32721 ft 525 kts 75°
2026-05-06 04:27 49.71102 -81.95253 32712 ft 526 kts 76°
2026-05-06 04:27 49.72821 -81.84284 32699 ft 525 kts 76°
2026-05-06 04:28 49.74532 -81.73303 32707 ft 525 kts 76°
2026-05-06 04:28 49.76232 -81.62310 32706 ft 525 kts 76°
2026-05-06 04:29 49.77921 -81.51317 32705 ft 526 kts 76°
2026-05-06 04:29 49.79602 -81.40300 32706 ft 526 kts 76°
2026-05-06 04:30 49.81265 -81.29326 32701 ft 527 kts 76°
2026-05-06 04:30 49.82933 -81.18246 32709 ft 529 kts 76°
2026-05-06 04:31 49.84592 -81.07137 32703 ft 530 kts 76°
2026-05-06 04:31 49.86245 -80.96000 32696 ft 531 kts 76°
2026-05-06 04:32 49.87885 -80.84868 32672 ft 529 kts 77°
2026-05-06 04:32 49.89511 -80.73747 32685 ft 528 kts 77°
2026-05-06 04:33 49.91123 -80.62642 32684 ft 527 kts 77°
2026-05-06 04:33 49.92722 -80.51549 32685 ft 527 kts 77°
2026-05-06 04:34 49.94311 -80.40447 32674 ft 527 kts 77°
2026-05-06 04:34 49.95892 -80.29320 32675 ft 527 kts 77°
2026-05-06 04:35 49.97457 -80.18219 32674 ft 527 kts 77°
2026-05-06 04:35 49.99008 -80.07138 32675 ft 528 kts 77°
2026-05-06 04:36 50.00567 -79.95982 32672 ft 528 kts 77°
2026-05-06 04:36 50.02174 -79.84845 32662 ft 528 kts 77°
2026-05-06 04:37 50.03790 -79.73717 32670 ft 527 kts 77°
2026-05-06 04:37 50.05387 -79.62589 32670 ft 527 kts 77°
2026-05-06 04:38 50.06969 -79.51428 32670 ft 528 kts 77°
2026-05-06 04:38 50.08538 -79.40266 32659 ft 528 kts 78°
2026-05-06 04:39 50.10099 -79.29080 32680 ft 529 kts 78°
2026-05-06 04:39 50.11650 -79.17880 32671 ft 530 kts 78°
2026-05-06 04:40 50.13195 -79.06637 32677 ft 531 kts 78°
2026-05-06 04:40 50.14731 -78.95378 32677 ft 531 kts 78°
2026-05-06 04:41 50.16245 -78.84197 32662 ft 530 kts 78°
2026-05-06 04:41 50.17763 -78.72892 32670 ft 529 kts 78°
2026-05-06 04:42 50.19260 -78.61661 32671 ft 528 kts 78°
2026-05-06 04:42 50.20736 -78.50493 32676 ft 528 kts 78°
2026-05-06 04:43 50.22209 -78.39264 32660 ft 528 kts 79°
2026-05-06 04:43 50.23675 -78.27993 32677 ft 529 kts 79°
2026-05-06 04:44 50.25132 -78.16707 32676 ft 531 kts 79°
2026-05-06 04:44 50.26583 -78.05379 32703 ft 532 kts 79°
2026-05-06 04:45 50.28023 -77.94037 32659 ft 532 kts 79°
2026-05-06 04:45 50.29452 -77.82688 32669 ft 531 kts 80°
2026-05-06 04:46 50.30868 -77.71350 32676 ft 531 kts 80°
2026-05-06 04:46 50.32271 -77.60015 32671 ft 530 kts 80°
2026-05-06 04:47 50.33663 -77.48682 32675 ft 530 kts 80°
2026-05-06 04:47 50.35045 -77.37332 32668 ft 531 kts 81°
2026-05-06 04:48 50.36408 -77.26033 32677 ft 532 kts 81°
2026-05-06 04:48 50.37551 -77.16488 32679 ft 533 kts 81°
2026-05-06 04:49 50.38902 -77.05114 32679 ft 534 kts 81°
2026-05-06 04:49 50.40252 -76.93652 32652 ft 535 kts 81°
2026-05-06 04:50 50.41593 -76.82165 32675 ft 536 kts 81°
2026-05-06 04:50 50.42923 -76.70663 32676 ft 537 kts 81°
2026-05-06 04:51 50.44243 -76.59139 32677 ft 537 kts 81°
2026-05-06 04:51 50.45555 -76.47588 32677 ft 537 kts 82°
2026-05-06 04:52 50.46856 -76.36023 32674 ft 538 kts 82°
2026-05-06 04:52 50.48144 -76.24462 32683 ft 538 kts 82°
2026-05-06 04:53 50.49415 -76.12955 32690 ft 539 kts 82°
2026-05-06 04:53 50.50683 -76.01349 32692 ft 539 kts 82°
2026-05-06 04:54 50.51942 -75.89724 32666 ft 539 kts 82°
2026-05-06 04:54 50.53187 -75.78111 32684 ft 539 kts 82°
2026-05-06 04:55 50.54422 -75.66481 32681 ft 539 kts 83°
2026-05-06 04:55 50.55646 -75.54836 32680 ft 539 kts 83°
2026-05-06 04:56 50.56858 -75.43195 32682 ft 540 kts 83°
2026-05-06 04:56 50.58059 -75.31540 32680 ft 540 kts 83°
2026-05-06 04:57 50.59250 -75.19858 32672 ft 540 kts 83°
2026-05-06 04:57 50.60429 -75.08177 32674 ft 540 kts 83°
2026-05-06 04:58 50.61589 -74.96556 32677 ft 540 kts 83°
2026-05-06 04:58 50.62743 -74.84887 32677 ft 539 kts 83°
2026-05-06 04:59 50.63885 -74.73214 32681 ft 539 kts 83°
2026-05-06 04:59 50.65014 -74.61540 32681 ft 539 kts 83°
2026-05-06 05:00 50.66133 -74.49838 32687 ft 540 kts 84°
2026-05-06 05:00 50.67241 -74.38125 32669 ft 540 kts 84°
2026-05-06 05:01 50.68339 -74.26398 32693 ft 541 kts 84°
2026-05-06 05:01 50.69427 -74.14644 32697 ft 542 kts 84°
2026-05-06 05:02 50.70499 -74.02931 32691 ft 543 kts 84°
2026-05-06 05:02 50.71496 -73.91912 32694 ft 543 kts 84°